TimeCDT,TemperatureF,Dew PointF,Humidity,Sea Level PressureIn,VisibilityMPH,Wind Direction,Wind SpeedMPH,Gust SpeedMPH,PrecipitationIn,Events,Conditions,WindDirDegrees,DateUTC
12:38 AM,62.6,53.6,72,29.99,10.0,North,11.5,-,N/A,,Overcast,350,2012-10-26 05:38:00
12:53 AM,62.1,54.0,75,29.98,10.0,North,10.4,-,N/A,,Overcast,360,2012-10-26 05:53:00
1:53 AM,62.1,51.1,67,30.00,10.0,North,12.7,-,N/A,,Overcast,350,2012-10-26 06:53:00
2:53 AM,61.0,51.1,70,30.01,10.0,North,12.7,-,N/A,,Overcast,360,2012-10-26 07:53:00
3:53 AM,60.1,50.0,69,30.01,10.0,North,12.7,-,N/A,,Overcast,360,2012-10-26 08:53:00
4:53 AM,59.0,48.0,67,30.01,10.0,North,13.8,-,N/A,,Overcast,360,2012-10-26 09:53:00
5:53 AM,59.0,46.9,64,30.04,10.0,NNW,13.8,-,N/A,,Overcast,340,2012-10-26 10:53:00
6:53 AM,55.9,45.0,67,30.05,10.0,North,16.1,23.0,0.00,Rain,Light Rain,360,2012-10-26 11:53:00
7:48 AM,51.8,46.4,82,30.09,2.5,North,10.4,-,N/A,Rain-Thunderstorm,Heavy Rain,350,2012-10-26 12:48:00
7:53 AM,52.0,48.0,86,30.09,2.5,North,6.9,-,0.25,Rain-Thunderstorm,Heavy Rain,350,2012-10-26 12:53:00
8:00 AM,51.8,48.2,88,30.10,8.0,North,8.1,-,0.00,Rain-Thunderstorm,Light Rain,360,2012-10-26 13:00:00
8:20 AM,53.6,48.2,82,30.11,10.0,North,12.7,20.7,0.00,,Overcast,350,2012-10-26 13:20:00
8:53 AM,53.1,46.0,77,30.12,10.0,North,13.8,-,0.01,Rain,Light Rain,360,2012-10-26 13:53:00
9:53 AM,53.6,44.6,72,30.15,10.0,North,17.3,26.5,N/A,,Overcast,350,2012-10-26 14:53:00
10:53 AM,52.0,46.9,83,30.16,10.0,NNW,17.3,24.2,N/A,,Overcast,340,2012-10-26 15:53:00
11:14 AM,51.8,46.4,82,30.17,10.0,North,13.8,24.2,N/A,,Overcast,350,2012-10-26 16:14:00
11:53 AM,53.1,46.9,80,30.17,10.0,North,16.1,20.7,N/A,,Overcast,350,2012-10-26 16:53:00
12:53 PM,54.0,48.0,80,30.17,10.0,North,13.8,-,N/A,,Overcast,350,2012-10-26 17:53:00
1:51 PM,53.6,46.4,77,30.15,10.0,North,19.6,25.3,N/A,,Overcast,350,2012-10-26 18:51:00
1:53 PM,54.0,46.9,77,30.15,10.0,North,17.3,25.3,N/A,Thunderstorm,Overcast,350,2012-10-26 18:53:00
2:14 PM,55.4,46.4,72,30.15,10.0,North,16.1,-,N/A,,Overcast,350,2012-10-26 19:14:00
2:53 PM,53.1,48.9,86,30.14,5.0,North,15.0,23.0,0.02,Rain,Rain,360,2012-10-26 19:53:00
3:22 PM,53.6,48.2,82,30.13,10.0,North,21.9,28.8,0.01,Rain-Thunderstorm,Light Thunderstorms and Rain,360,2012-10-26 20:22:00
3:37 PM,51.8,48.2,88,30.15,3.0,North,13.8,24.2,0.05,Rain,Heavy Rain,360,2012-10-26 20:37:00
3:53 PM,53.1,50.0,89,30.15,10.0,North,13.8,21.9,0.06,Rain,Light Rain,350,2012-10-26 20:53:00
4:53 PM,53.1,48.9,86,30.14,8.0,North,11.5,21.9,0.00,Rain,Light Rain,360,2012-10-26 21:53:00
5:53 PM,53.1,48.0,83,30.16,10.0,North,11.5,-,0.00,,Overcast,10,2012-10-26 22:53:00
6:53 PM,54.0,46.9,77,30.19,10.0,North,12.7,-,N/A,,Overcast,360,2012-10-26 23:53:00
7:46 PM,53.6,46.4,77,30.21,10.0,North,12.7,-,N/A,,Overcast,10,2012-10-27 00:46:00
7:53 PM,53.6,46.4,77,30.21,10.0,North,12.7,-,N/A,,Overcast,10,2012-10-27 00:53:00
8:53 PM,53.1,44.1,71,30.22,10.0,North,16.1,-,N/A,,Overcast,10,2012-10-27 01:53:00
9:53 PM,53.1,43.0,69,30.24,10.0,North,11.5,-,N/A,,Overcast,360,2012-10-27 02:53:00
10:53 PM,53.1,42.1,66,30.25,10.0,North,16.1,21.9,N/A,,Overcast,360,2012-10-27 03:53:00
11:53 PM,52.0,41.0,66,30.25,10.0,North,11.5,21.9,N/A,,Overcast,360,2012-10-27 04:53:00